Weather History for Cut Bank, MT

Change the Weather History Date:

Wednesday, May 1, 2013

  Actual Average Record
Temperature  
Mean Temperature 33 °F 46 °F  
Max Temperature 50 °F 58 °F 77 °F (1914)
Min Temperature 16 °F 33 °F 12 °F (1954)
Degree Days  
Heating Degree Days 32 20  
Month to date heating degree days 32 20  
Since 1 July heating degree days 7663 7840  
Cooling Degree Days 0 0  
Month to date cooling degree days 0 0  
Year to date cooling degree days 0 0  
Moisture  
Dew Point 18 °F    
Average Humidity 58    
Maximum Humidity 92    
Minimum Humidity 24    
Precipitation  
Precipitation 0.00 in 0.04 in 0.76 in (1951)
Month to date precipitation 0.00 0.04  
Year to date precipitation 2.02 1.73  
Snow  
Snow 0.00 in - - ()
Snow Depth 0.00 in    
Sea Level Pressure  
Sea Level Pressure 30.48 in    
Wind  
Wind Speed 9 mph (West)    
Max Wind Speed 22 mph    
Max Gust Speed 29 mph    
Visibility 10 miles    
Events      
T = Trace of Precipitation, MM = Missing Value Source: NWS Daily Summary

Daily Weather History Graph

Daily Weather History Graph

Search for Another Location

Airport:

Trip Planner

Search our weather history database for the weather conditions in past years. The results will help you decide how hot, cold, wet, or windy it might be!

Date:

Astronomy

May. 01, 2013 Rise Set
Actual Time 6:09 AM MDT 8:44 PM MDT
Civil Twilight 5:33 AM MDT 9:20 PM MDT
Nautical Twilight 4:49 AM MDT 10:05 PM MDT
Astronomical Twilight 3:57 AM MDT 10:58 PM MDT
Moon 1:57 AM MDT (5/1) 11:52 AM MDT (5/1)
Length of Visible Light 15h 46m
Length of Day
14h 35m
Waning Gibbous, 58% of the Moon is Illuminated
May 1
Waning Gibbous
May 2
Last Quarter
May 9
New
May 17
First Quarter
May 24
Full

Hourly Weather History & Observations

Time (MDT) Temp. Windchill Dew Point Humidity Pressure Visibility Wind Dir Wind Speed Gust Speed Precip Events Conditions
12:56 AM 25.0 °F - 19.0 °F 78% 30.39 in 10.0 mi Calm Calm - N/A   Overcast
1:56 AM 23.0 °F 18.4 °F 18.0 °F 81% 30.40 in 10.0 mi WSW 3.5 mph - N/A   Clear
2:56 AM 23.0 °F 18.4 °F 18.0 °F 81% 30.40 in 10.0 mi SW 3.5 mph - N/A   Clear
3:56 AM 18.0 °F 12.7 °F 15.1 °F 88% 30.43 in 10.0 mi North 3.5 mph - N/A   Clear
4:56 AM 18.0 °F - 15.1 °F 88% 30.45 in 10.0 mi Calm Calm - N/A   Clear
5:56 AM 19.0 °F - 15.1 °F 85% 30.46 in 10.0 mi Calm Calm - N/A   Clear
6:56 AM 17.6 °F 10.7 °F 15.8 °F 93% 30.35 in 10.0 mi South 4.6 mph - N/A   Clear
7:56 AM 24.1 °F - 21.0 °F 88% 30.50 in 10.0 mi Calm Calm - N/A   Clear
8:56 AM 28.9 °F - 24.1 °F 82% 30.51 in 10.0 mi Calm Calm - N/A   Clear
9:56 AM 36.0 °F 31.1 °F 24.1 °F 62% 30.51 in 10.0 mi SW 5.8 mph - N/A   Clear
10:56 AM 37.9 °F 32.1 °F 16.0 °F 41% 30.50 in 10.0 mi West 8.1 mph - N/A   Partly Cloudy
11:56 AM 41.0 °F 33.9 °F 19.4 °F 42% 30.41 in 10.0 mi WSW 12.7 mph - N/A   Mostly Cloudy
12:56 PM 46.0 °F 39.0 °F 15.1 °F 29% 30.49 in 10.0 mi WSW 17.3 mph 24.2 mph N/A   Mostly Cloudy
1:56 PM 44.1 °F 36.5 °F 15.1 °F 31% 30.51 in 10.0 mi WNW 17.3 mph 26.5 mph N/A   Overcast
2:56 PM 46.0 °F 39.9 °F 12.9 °F 26% 30.51 in 10.0 mi NW 13.8 mph 23.0 mph N/A   Mostly Cloudy
3:56 PM 45.0 °F 38.5 °F 12.0 °F 26% 30.53 in 10.0 mi West 13.8 mph - N/A   Overcast
4:56 PM 46.4 °F 40.1 °F 12.2 °F 25% 30.44 in 10.0 mi WNW 15.0 mph 23.0 mph N/A   Overcast
5:56 PM 48.0 °F - 14.0 °F 26% 30.53 in 10.0 mi WNW 18.4 mph 23.0 mph N/A   Scattered Clouds
6:56 PM 43.0 °F 38.8 °F 17.1 °F 35% 30.56 in 10.0 mi WNW 6.9 mph - N/A   Partly Cloudy
7:56 PM 44.6 °F 38.1 °F 19.4 °F 37% 30.45 in 10.0 mi West 13.8 mph - N/A   Scattered Clouds
8:56 PM 37.9 °F 32.1 °F 21.0 °F 51% 30.56 in 10.0 mi WSW 8.1 mph - N/A   Clear
9:56 PM 35.1 °F 28.6 °F 21.0 °F 57% 30.56 in 10.0 mi WSW 8.1 mph - N/A   Clear
10:56 PM 34.0 °F 26.0 °F 21.0 °F 59% 30.56 in 10.0 mi WSW 10.4 mph - N/A   Clear
11:56 PM 35.1 °F 26.4 °F 21.0 °F 57% 30.54 in 10.0 mi WSW 12.7 mph - N/A   Clear